Location: Bathurst
(33.4193°S, 149.5775°E)
Time: 12:55:31
(UTC+10:00)

Envisat - Visible Passes

Search period start: 06 May 2021 00:00
Search period end: 16 May 2021 00:00
Orbit: 764 x 766 km, 98.1° (Epoch: 05 May)

Date Brightness Start Highest point End Pass type
(mag) Time Alt. Az. Time Alt. Az. Time Alt. Az.
06 May 4.7 04:02:45 10° NE 04:07:11 31° ESE 04:11:39 10° S visible
06 May 4.0 05:41:59 10° NNW 05:46:08 25° W 05:50:20 10° SW visible
06 May 3.9 17:54:07 10° S 17:59:06 52° WSW 18:04:01 10° NNW visible
07 May 5.8 03:28:20 10° E 03:30:45 13° ESE 03:33:11 10° SE visible
07 May 3.0 05:04:09 10° N 05:09:11 61° W 05:14:17 10° SSW visible
07 May 5.9 18:58:38 10° SW 19:00:43 12° WSW 19:02:47 10° W visible
08 May 3.6 04:27:26 10° NNE 04:32:24 56° ESE 04:37:26 10° S visible
08 May 4.7 06:09:18 10° WNW 06:11:43 13° W 06:14:08 10° WSW visible
08 May 5.0 18:19:56 10° SSW 18:24:18 29° WSW 18:28:37 10° NW visible
09 May 5.1 03:51:48 10° ENE 03:55:50 24° ESE 03:59:54 10° SSE visible
09 May 3.7 05:30:05 10° NNW 05:34:37 32° W 05:39:13 10° SW visible
09 May 3.5 17:42:34 10° S 17:47:41 68° WSW 17:52:43 10° NNW visible
10 May 6.0 03:18:54 10° ESE 03:19:28 10° ESE 03:20:01 10° ESE visible
10 May 2.9 04:52:38 10° N 04:57:43 80° WNW 05:02:48 10° SSW visible
10 May 5.7 18:46:20 10° SSW 18:49:24 16° WSW 18:52:28 10° WNW visible
11 May 4.1 04:16:13 10° NE 04:21:00 43° ESE 04:25:08 14° S visible
11 May 4.4 05:56:47 10° NW 06:00:10 18° W 06:03:34 10° SW visible
11 May 4.6 18:08:14 10° S 18:12:56 37° WSW 18:17:34 10° NW visible
12 May 5.4 03:40:59 10° ENE 03:44:30 19° ESE 03:47:32 12° SSE visible
12 May 3.3 05:18:19 10° N 05:23:08 42° W 05:27:43 11° SSW visible
12 May 3.1 17:31:05 10° SSE 17:36:15 87° WSW 17:41:21 10° NNW visible
13 May 3.0 04:41:12 10° NNE 04:46:17 80° ESE 04:50:08 18° S visible
13 May 5.5 18:34:20 10° SSW 18:38:04 21° WSW 18:41:47 10° WNW visible
14 May 4.5 04:05:06 10° NE 04:09:37 33° ESE 04:12:36 19° SSE visible
14 May 4.1 05:44:38 10° NNW 05:48:37 23° W 05:52:39 10° SW visible
14 May 4.1 17:56:37 10° S 18:01:32 47° WSW 18:06:24 10° NW visible
15 May 5.7 03:30:25 10° E 03:33:10 15° ESE 03:35:04 12° SE visible
15 May 3.0 05:06:39 10° N 05:11:39 55° W 05:15:15 19° SSW visible
15 May 6.0 19:01:34 10° SW 19:03:07 11° WSW 19:04:41 10° W visible
